Flag for Germany Weather past 2 weeks in Neu-Isenburg, Hesse, Germany

Now
74 °F

Passing clouds.


Feels Like: 76 °F
Forecast: 42 / 59 °F
Wind: 2 mph from North

Location: Frankfurt / M-Flughafen

Current Time: Apr 21, 2015 at 5:34:21 PM

Latest Report: Apr 21, 2015 at 4:00 PM


Visibility: 31 mi

Pressure: 30.33 "Hg

Humidity: 23%

Dew point: 33 °F

Location of Neu-IsenburgLocation

Historic Weather in Neu-Isenburg — Graph

°F

Neu-Isenburg temperature yesterday

Maximum temperature yesterday: 68 °F (at 6:00 PM)
Minimum temperature yesterday: 43 °F (at 6:00 AM)
Average temperature yesterday: 56 °F

Past Weeks' High & Low Weather Summary

 TemperatureHumidityPressure
High77 °F (Apr 15, 6:00 PM)95% (Apr 10, 7:00 AM)30.66 "Hg (Apr 10, 7:00 AM)
Low28 °F (Apr 7, 7:00 AM)22% (Apr 19, 6:00 PM)29.84 "Hg (Apr 16, 7:00 PM)
Average53 °F56%30.27 "Hg
* Reported Apr 6 4:00 PM — Apr 21 4:00 PM, Neu-Isenburg, Weather by CustomWeather, © 2015

Note: Actual official high and low records may vary slightly from our data, if they occured in-between our weather recording intervals... More about our weather records

Advertising

Neu-Isenburg weather history for previous 24 hours

 ConditionsComfort  
Time TempWeatherWind HumidityBarometerVisibility
4:00 PM
Tue, Apr 21
74 °FPassing clouds.2 mph23%30.33 "Hg31 mi
3:00 PM72 °FPassing clouds.2 mph26%30.36 "Hg31 mi
2:00 PM70 °FScattered clouds.2 mph30%30.38 "Hg31 mi
1:00 PM66 °FScattered clouds.3 mph33%30.40 "Hg31 mi
12:00 PM64 °FScattered clouds.3 mph31%30.41 "Hg31 mi
10:00 AM58 °FPartly sunny.3 mph49%30.42 "Hg31 mi
9:00 AM55 °FPartly sunny.2 mph55%30.41 "Hg31 mi
8:00 AM50 °FPartly sunny.1 mph71%30.40 "Hg31 mi
7:00 AM42 °FScattered clouds.2 mph89%30.40 "Hg31 mi
6:00 AM40 °FPassing clouds.2 mph87%30.38 "Hg31 mi
4:00 AM40 °FPassing clouds.1 mph84%30.38 "Hg31 mi
3:00 AM43 °FClear.2 mph80%30.37 "Hg31 mi
2:00 AM45 °FClear.1 mph71%30.36 "Hg31 mi
1:00 AM47 °FPassing clouds.1 mph67%30.36 "Hg34 mi
12:00 AM50 °FPassing clouds.1 mph60%30.34 "Hg37 mi
10:00 PM
Mon, Apr 20
60 °FPassing clouds.3 mph37%30.31 "Hg37 mi
9:00 PM63 °FPassing clouds.3 mph30%30.29 "Hg40 mi
8:00 PM65 °FPassing clouds.3 mph26%30.27 "Hg37 mi
7:00 PM67 °FPassing clouds.7 mph26%30.26 "Hg31 mi
6:00 PM68 °FPassing clouds.6 mph25%30.26 "Hg28 mi
Weather by CustomWeather, © 2015

See weather overviewHow to use our weather pages